Location: *
(47.6569°N, 7.4256°E)
Time: 10:22:29
(UTC+00:00)

Cosmos 883 Rocket - Pass Details

Date: 14 December 2019
Orbit: 950 x 995 km, 83.0° (Epoch: 19 January)

Event Time Altitude Azimuth Distance (km) Brightness Sun altitude
Rises 18:10:34 0° 351° (N) 3,722 7.6 -24.4°
Reaches altitude 10° 18:13:07 10° 354° (N) 2,766 6.8 -24.9°
Maximum altitude 18:19:29 77° 80° (E) 1,016 4.3 -25.9°
Drops below altitude 10° 18:25:44 10° 167° (SSE) 2,720 6.7 -27.0°
Sets 18:28:14 0° 169° (SSE) 3,657 7.5 -27.4°
